一网星座-0254星 (ONEWEB-0254 )

导读

ONEWEB-0254是英国OneWeb星座中的一颗低轨互联网卫星,于2021年7月1日成功发射,该卫星由空客防务与航天公司制造,质量约147kg,设计寿命七年,运行在1200公里高度的近地极轨轨道,搭载高吞吐量Ku频段载荷。作为全球卫星互联网组网的一部分,它可为全球用户提供高速低延迟宽带接入服务,助力填补全球网络覆盖空白,支撑偏远地区、移动场景的互联网接入需求。

Basic Information
目录编号:
48972
目录名称:
ONEWEB-0254
国际标识:
2021-060F
轨道中心:
EARTH
卫星名称:
一网星座-0254星
卫星全名:
一网星座-0254星 (ONEWEB-0254 )
卫星状态:
在轨 (已飞行1853 天)
发射日期:
2021-07-01 UTC
国别 :
英国 (GB)
星等 :
--
Orbit Information
数据来源 国际轨道数据 AOE轨道数据
星历时间 2026-07-27T20:18:06+0800
13小时前
查看轨道信息
2026-07-24T16:00:00+0800
3天前
查看轨道信息
半长轴 7575.891km 7575.883km
偏心率 0.0002385 0.0002981
轨道倾角 87.908° 87.907°
近地点辐角 93.110° 87.215°
升交点赤经 220.763° 221.394°
平近点角 267.031° 332.774°
近地点 1195.947km 1195.487km
远地点 1199.561km 1200.005km
周期 109.373分钟 109.373分钟
每日圈数 13.165951 13.165971
Detailed Information
平衡模式:
三轴稳定
覆盖范围:
全球
运营商:
一网卫星公司
运营商所在国:
英国
制造商(研发单位):
一网卫星公司
制造商所在国:
英国
使用方式:
暂无
Satellite Introduction
OneWeb卫星网络由648颗重约125公斤的微型卫星组成,运行在1200公里的轨道上。 每颗卫星都能够提供至少每秒8千兆位的吞吐量,以使用其高吞吐量的Ku频段有效载荷为家庭和移动平台提供互联网接入。该卫星仍在工作。
2D Orbit Map
3D Orbit Map
Orbit Altitude Analysis Chart
Orbit Inclination Analysis Chart
Orbit Comprehensive Analysis Chart
View Comprehensive Chart